weather.gov     
National Weather Service

Terminal Aerodrome Forecast
NWS Homepage
This page is being discontinued on March 12, 2014.
The same data is available at this site. Please update your bookmarks.
Thank you, and we apologize for the inconvenience.
Please send an email to SR-SRH.Webmaster@noaa.gov with any concerns.


Current Version
Previous Version:    01  02  03  04  05  06  07  08  09  10  11  12  13  14  15  16  17  18  19  20  21  22  23  24  25  26  27  
[Printable]
754
FTUS41 KAKQ 211700 RRA
TAFSBY
TAF
KSBY 211743Z 2118/2218 25006KT P6SM SCT100 BKN200
     FM212000 26004KT P6SM BKN100
     FM220300 32005KT P6SM BKN050
     FM220900 33008KT 5SM -DZ BR BKN015 OVC040
     FM221500 36012KT P6SM BKN020 OVC040=


U.S. Dept. of Commerce
NOAA National Weather Service
1325 East West Highway
Silver Spring, MD 20910
E-mail: w-nws.webmaster@noaa.gov
Page last modified: May 16, 2007
NATIONAL WEATHER SERVICE: for Safety, for Work, for Fun - FOR LIFE